Weather in Bradford

United Kingdom     53°47′44″N   1°45′08″W
temp.,
°C
wind,
m/s
gust,
m/s
humid.,
%
clouds,
%
prec.,
mm/h
press.,
hPa
HPBL,
m
20 june, sun
sun2001:00+11e3685100 0.1 1012451
04:00+10ene4798100 3.6 1011539
07:00+9ne3898100 5.8 1011539
10:00+9ne3795100 0.4 1012559
13:00+10ne458191 0.4 1012651
16:00+13ne346366 0.0 10121039
19:00+13ene46638 0.0 1012971
22:00+9e11859 0.0 101319
21 june, mon
mon2101:00+8nne1191100 0.0 101411
04:00+7n1191100 0.0 101419
07:00+9ne2473100 0.0 1015295
10:00+13ne4656100 0.0 1016976
13:00+17ne5647100 0.0 10161623
16:00+15ne5660100 0.1 10171459
19:00+12nne587798 0.5 1019849
22:00+9nne398276 0.0 1021597
22 june, tue
tue2201:00+8n288710 0.0 1022375
04:00+7n28850 0.0 1022272
07:00+9nne37770 0.0 1023465
10:00+14nne465418 0.0 10231205
13:00+17nne3442100 0.0 10221872
16:00+17nw435069 0.0 10221491
19:00+16wnw435983 0.1 1022933
22:00+11w257277 0.0 1023199
23 june, wed
wed2301:00+9wsw247784 0.0 1024117
04:00+9wsw2473100 0.0 1023163
07:00+11w3780100 0.0 1023373
10:00+14w347060 0.1 1023711
13:00+17w326136 0.1 10221117
16:00+17wsw336299 0.0 1022963
19:00+15w447499 0.0 1022561
22:00+12wsw358980 0.0 1023183
24 june, thu
thu2401:00+11wsw2392100 0.0 1022106
04:00+10wsw2495100 0.0 1022122
07:00+12w368794 0.0 1021322
10:00+12wsw2594100 0.3 1021321
13:00+15w3586100 0.4 1021468
16:00+14w4791100 0.5 1020412
19:00+14w4892100 0.6 1020539
22:00+13w3108180 0.0 1021443